Wetbulb
40.03 40.19 51.63 58.52 63.50 64.90 66.57 67.59 68.46 68.59 69.17 69.95 70.74 70.79 70.73 71.18 71.23 71.43 71.09 71.48 71.74 71.31 71.68 72.20 72.40 72.68 72.72 72.81 72.82 72.54 72.34 72.33 72.18 72.02 71.73 72.46 73.70 73.40 72.32 72.28 73.05 72.90 73.56
39.06 39.09 49.72 56.91 62.01 63.42 65.04 65.85 66.64 66.89 67.40 68.31 69.56 69.80 70.23 70.38 70.22 70.73 70.75 71.10 71.06 71.32 71.77 71.54 72.01 72.08 72.12 72.26 72.30 72.19 71.92 71.47 71.08 71.09 70.22 70.26 72.30 73.31 72.89 72.29 72.40 72.70 73.30
37.32 37.95 40.45 55.99 60.27 61.80 63.03 63.99 64.79 65.17 65.54 66.15 67.15 68.63 69.19 69.18 69.04 69.44 70.00 70.42 70.50 70.64 70.59 71.47 71.60 71.42 71.54 71.70 71.66 71.85 71.84 71.18 70.04 69.54 69.78 70.89 71.32 72.74 72.71 72.72 72.40 71.53 72.57
36.30 36.76 38.89 55.44 58.39 60.06 61.17 62.20 62.89 63.26 63.43 63.67 64.76 66.03 67.29 67.84 67.82 67.77 68.20 68.91 69.15 69.89 70.08 70.21 70.34 70.74 70.97 71.00 71.16 71.41 71.15 70.63 69.69 68.79 69.80 69.82 70.36 70.59 72.03 72.05 72.51 71.80 71.06
34.76 35.42 40.31 53.29 56.15 57.82 58.94 59.82 60.46 60.79 61.11 61.15 62.05 62.81 64.31 65.28 66.10 66.10 66.02 66.48 66.82 67.51 68.24 68.69 68.99 69.79 69.99 70.20 70.51 70.53 70.45 69.86 68.80 68.90 69.38 69.84 70.65 71.49 71.80 71.91 71.37 72.20 71.89
33.41 33.84 38.81 50.13 53.50 55.19 56.47 57.17 57.65 57.70 58.27 58.41 58.65 59.80 60.62 62.22 62.96 63.98 63.55 63.83 64.62 65.25 66.25 66.86 67.31 67.45 68.48 69.02 69.16 69.11 69.32 69.06 68.35 68.84 68.75 68.89 69.84 72.31 71.40 71.75 71.11 71.29 71.66
32.37 32.83 33.55 45.70 49.05 52.28 53.57 54.38 54.19 54.31 55.15 55.10 54.98 55.86 56.70 58.46 58.94 59.71 60.46 61.16 62.36 63.41 64.17 65.07 65.41 65.55 65.97 66.81 67.39 67.33 67.77 67.50 68.30 68.49 68.55 68.82 69.27 71.56 71.87 71.22 71.41 70.86 71.16
30.82 31.74 31.72 36.45 42.91 47.51 49.82 50.91 50.98 51.05 51.52 51.97 51.56 51.40 52.51 53.03 55.07 55.23 56.63 57.75 59.09 60.58 61.55 62.23 62.81 62.67 62.96 64.01 64.55 64.65 65.57 66.65 67.73 68.18 68.28 68.57 68.99 71.26 71.97 71.40 70.63 71.09 70.99
31.14 30.22 30.38 31.18 33.86 37.91 45.02 46.47 47.32 47.29 47.47 47.91 48.06 47.39 46.66 47.92 49.17 51.36 51.85 53.98 54.79 56.37 57.42 58.20 58.86 58.92 59.68 60.67 61.39 61.95 63.28 63.88 66.54 67.47 67.68 68.28 68.98 71.44 71.56 71.71 71.44 71.14 71.01
30.05 29.57 29.27 30.09 30.81 32.50 33.44 41.46 42.41 42.99 43.04 43.23 43.46 42.76 41.50 41.20 43.29 45.72 47.24 49.24 50.68 51.41 52.74 53.73 54.26 54.66 54.89 56.12 57.34 58.52 59.92 61.48 63.12 66.01 67.34 67.94 69.40 71.07 71.09 71.14 71.14 70.93 71.09
28.80 28.39 28.39 28.29 29.03 30.94 32.26 33.37 34.75 37.66 37.48 37.17 36.27 38.05 35.49 34.86 37.47 37.71 42.64 44.59 46.69 46.87 48.22 49.28 49.98 49.59 49.29 50.14 52.14 53.96 56.18 57.57 60.20 61.80 65.74 65.70 68.74 70.48 70.26 70.26 70.25 70.45 70.67
25.70 27.02 26.86 27.14 27.33 28.76 31.32 29.76 30.74 30.70 30.69 30.42 30.61 31.31 32.33 32.57 34.60 35.36 36.93 40.08 41.46 42.38 42.71 44.46 45.43 44.95 44.36 44.37 46.37 49.65 51.43 54.00 57.14 59.04 61.57 63.88 67.13 69.97 69.52 69.65 69.68 69.82 69.83
25.27 25.88 25.71 26.09 26.66 26.58 27.73 28.20 29.19 29.89 29.15 28.90 29.26 29.65 30.18 31.23 31.80 32.26 32.95 33.56 34.72 36.54 35.51 37.10 37.77 38.86 40.07 41.62 43.55 45.24 46.81 49.36 52.45 55.50 59.52 61.27 64.46 68.65 69.36 69.01 68.81 69.04 69.26
24.81 24.84 25.02 25.21 25.82 25.87 26.61 26.30 26.82 28.20 27.20 26.93 27.53 28.51 28.98 29.30 29.96 30.31 30.82 31.86 32.40 32.96 33.33 34.38 35.15 36.56 37.96 39.45 41.21 42.27 43.74 45.34 47.66 50.74 54.66 57.03 61.85 65.05 67.48 68.51 68.57 68.57 68.53
24.03 24.27 24.54 24.91 24.74 25.56 25.43 25.96 25.96 25.71 25.68 25.93 26.54 27.14 27.88 28.09 28.51 29.45 29.69 30.58 31.02 31.92 31.97 32.84 33.72 34.62 35.82 37.15 38.83 39.73 40.83 42.26 44.15 47.16 50.77 53.36 58.71 62.55 64.37 66.06 67.63 67.92 67.85
23.92 23.59 24.55 23.86 24.24 25.16 24.99 24.64 24.71 25.27 25.18 25.36 25.59 25.62 26.65 27.05 27.38 27.82 28.38 28.83 29.56 30.31 31.07 31.95 32.20 33.18 34.25 35.66 36.13 37.38 38.98 40.83 43.94 47.30 49.81 53.54 57.36 59.31 61.70 64.14 65.54 66.52 66.77
23.75 23.66 23.93 24.74 23.96 23.86 24.28 24.65 24.41 24.56 24.60 24.63 24.92 25.12 25.66 26.41 26.65 27.27 27.67 27.73 28.37 29.61 30.03 31.33 31.70 33.03 33.41 34.12 34.46 36.19 37.80 40.02 44.56 46.81 51.71 54.45 55.38 56.30 58.19 60.67 61.87 63.16 63.67
23.57 22.84 23.13 23.46 22.52 23.10 23.54 23.78 24.12 23.51 23.33 23.52 23.84 24.07 24.69 25.21 25.95 26.72 26.80 26.48 27.77 28.99 28.85 29.80 29.97 31.01 31.77 32.04 32.79 35.17 36.76 39.96 43.93 41.83 46.75 46.19 49.95 48.26 51.62 54.03 56.29 58.79 59.94
22.33 22.32 22.11 22.18 21.32 21.92 22.63 23.29 22.88 22.49 22.26 22.27 22.58 22.87 23.03 23.98 24.84 25.84 25.65 25.95 27.46 27.86 27.22 27.76 28.90 29.14 29.64 30.29 31.62 34.56 35.97 39.63 38.45 41.08 40.44 44.30 42.74 45.57 47.47 48.54 48.72 49.62 52.58
20.38 20.47 21.91 22.27 20.65 21.06 22.45 22.90 23.02 22.76 21.98 22.03 21.46 21.30 21.38 22.85 23.73 24.81 25.15 25.14 26.82 26.63 26.29 26.92 27.49 29.40 29.07 28.86 29.89 32.60 35.77 39.98 36.29 37.86 38.85 39.55 40.33 43.09 40.78 42.66 44.60 45.70 50.80
19.91 19.78 19.52 19.88 19.20 20.64 21.23 21.70 21.95 20.90 21.28 20.76 21.63 20.24 20.30 21.42 23.28 22.73 24.01 24.58 25.63 24.86 24.54 25.39 26.70 27.39 28.26 29.04 30.76 32.85 35.49 38.23 35.23 36.00 37.72 36.08 38.55 36.46 38.65 40.15 41.73 46.15 43.60
19.99 19.45 18.90 19.23 18.17 18.48 20.03 20.14 20.83 20.85 20.86 20.70 20.78 20.05 19.72 20.09 21.75 22.26 21.70 22.69 23.58 24.27 24.25 24.88 25.36 26.55 27.66 28.11 26.39 30.01 28.57 33.36 33.52 33.56 35.72 34.13 34.33 34.85 36.54 36.98 40.25 39.00 41.43
18.98 18.25 18.90 17.98 17.06 16.46 15.09 19.43 19.92 20.73 21.26 20.78 19.46 19.38 19.02 19.15 20.24 20.57 20.28 21.08 22.16 23.12 22.73 24.15 23.83 24.24 24.73 27.40 27.71 26.78 26.36 25.22 26.58 32.81 32.60 32.50 32.03 33.22 34.68 35.79 36.61 37.98 40.77
18.81 17.71 18.38 18.38 17.08 15.25 14.28 14.20 15.37 19.06 18.78 16.68 16.96 17.91 18.22 18.20 18.57 19.47 19.00 19.26 20.37 21.78 21.54 22.78 23.54 23.73 24.56 23.73 27.29 27.55 27.23 26.40 23.15 23.99 30.38 31.59 31.96 32.00 33.04 35.27 35.18 37.17 38.60
19.42 16.97 16.03 15.50 15.42 12.99 11.95 11.64 12.73 13.82 13.53 15.14 16.10 16.16 16.54 17.42 17.49 17.73 18.10 17.73 18.15 19.66 20.43 21.00 21.74 22.27 23.49 23.12 23.93 24.62 25.96 27.49 27.12 23.16 22.95 25.99 29.67 31.53 32.79 33.80 34.97 36.02 38.05
18.44 16.44 14.52 14.53 13.99 12.68 11.75 9.01 10.02 8.91 11.62 13.93 12.76 15.55 15.68 16.54 16.69 15.71 16.65 16.38 17.11 17.90 18.43 19.64 20.78 21.36 22.08 22.54 23.52 23.78 23.04 23.38 24.19 23.22 22.50 23.62 24.98 29.31 31.99 33.82 34.12 35.11 36.38
MSLP
1031.08 1030.85 1029.94 1028.56 1026.99 1026.08 1025.24 1024.50 1023.85 1023.47 1023.19 1022.73 1022.34 1022.09 1021.99 1021.66 1021.47 1021.36 1021.23 1021.10 1021.01 1020.80 1020.58 1020.33 1020.14 1019.93 1019.83 1019.67 1019.51 1019.57 1019.65 1019.40 1019.35 1019.28 1019.07 1018.97 1018.75 1018.69 1018.76 1018.50 1018.41 1018.25 1018.30
1031.78 1031.40 1030.46 1029.09 1027.72 1026.88 1026.11 1025.43 1024.80 1024.33 1023.99 1023.63 1023.21 1022.80 1022.48 1022.26 1022.20 1021.95 1021.75 1021.62 1021.42 1021.21 1020.93 1020.86 1020.53 1020.45 1020.24 1019.97 1020.09 1020.02 1019.88 1019.62 1019.66 1019.74 1019.67 1019.41 1019.21 1019.06 1019.05 1019.08 1018.80 1018.61 1018.62
1032.01 1031.69 1030.92 1029.42 1028.27 1027.47 1026.83 1026.25 1025.72 1025.25 1024.84 1024.55 1024.18 1023.67 1023.29 1023.13 1022.99 1022.81 1022.46 1022.17 1021.90 1021.70 1021.30 1021.25 1021.02 1021.05 1020.87 1020.59 1020.49 1020.28 1020.26 1020.05 1020.21 1019.94 1019.82 1019.43 1019.42 1019.33 1019.23 1019.26 1019.22 1019.06 1018.89
1032.26 1032.07 1031.23 1029.69 1028.73 1027.98 1027.39 1026.86 1026.41 1026.07 1025.66 1025.44 1025.05 1024.64 1024.23 1024.00 1023.86 1023.60 1023.39 1023.07 1022.86 1022.38 1022.13 1021.84 1021.49 1021.38 1021.10 1020.95 1020.77 1020.64 1020.53 1020.53 1020.30 1020.22 1019.75 1019.60 1019.45 1019.49 1019.29 1019.35 1019.31 1019.23 1019.29
1032.47 1032.39 1031.60 1030.14 1029.34 1028.60 1028.03 1027.53 1027.15 1026.82 1026.44 1026.23 1025.86 1025.53 1025.07 1024.69 1024.44 1024.27 1024.01 1023.74 1023.50 1023.05 1022.72 1022.52 1022.18 1021.79 1021.62 1021.39 1021.16 1021.05 1021.00 1020.75 1020.49 1020.22 1020.19 1019.76 1019.74 1019.48 1019.36 1019.45 1019.38 1019.36 1019.46
1032.70 1032.58 1032.27 1030.78 1029.91 1029.23 1028.68 1028.27 1027.79 1027.58 1027.28 1027.01 1026.72 1026.30 1025.86 1025.34 1025.04 1024.60 1024.43 1024.22 1023.89 1023.65 1023.35 1022.99 1022.76 1022.47 1022.10 1021.81 1021.51 1021.39 1021.16 1020.88 1020.70 1020.41 1020.28 1019.96 1019.93 1019.68 1019.41 1019.45 1019.60 1019.51 1019.45
1032.95 1032.94 1032.91 1031.66 1030.79 1029.87 1029.31 1028.97 1028.66 1028.33 1027.99 1027.82 1027.62 1027.21 1026.73 1026.13 1025.72 1025.35 1024.97 1024.70 1024.29 1023.97 1023.64 1023.47 1023.18 1022.94 1022.76 1022.45 1022.18 1021.96 1021.66 1021.18 1020.82 1020.60 1020.38 1020.29 1020.20 1019.93 1019.52 1019.55 1019.67 1019.53 1019.57
1033.36 1033.18 1033.05 1032.60 1031.69 1030.78 1030.19 1029.68 1029.39 1029.05 1028.74 1028.41 1028.19 1027.93 1027.58 1027.21 1026.57 1026.21 1025.81 1025.40 1025.03 1024.61 1024.30 1024.04 1023.69 1023.50 1023.24 1022.89 1022.58 1022.23 1021.79 1021.57 1020.92 1020.88 1020.64 1020.39 1020.39 1020.03 1019.75 1019.60 1019.67 1019.66 1019.71
1033.69 1033.47 1033.29 1032.98 1032.50 1031.91 1030.98 1030.59 1030.15 1029.89 1029.60 1029.26 1028.80 1028.54 1028.40 1027.99 1027.67 1027.11 1026.82 1026.29 1025.85 1025.37 1024.95 1024.63 1024.28 1023.94 1023.63 1023.33 1023.09 1022.79 1022.38 1022.00 1021.32 1021.14 1020.83 1020.53 1020.56 1020.19 1019.72 1019.59 1019.78 1019.66 1019.66
1034.04 1033.97 1033.61 1033.21 1032.90 1032.21 1031.91 1031.40 1030.96 1030.63 1030.24 1029.84 1029.44 1029.16 1029.01 1028.68 1028.39 1027.93 1027.48 1027.19 1026.73 1026.25 1025.79 1025.35 1024.90 1024.48 1024.08 1023.74 1023.51 1023.24 1022.81 1022.48 1022.14 1021.55 1021.16 1021.18 1020.76 1020.23 1019.82 1019.81 1019.81 1019.70 1019.61
1034.24 1034.12 1034.05 1033.60 1033.20 1032.73 1032.41 1032.32 1031.83 1031.39 1030.95 1030.64 1030.31 1029.94 1029.44 1029.26 1028.96 1028.74 1028.32 1027.95 1027.31 1026.91 1026.36 1025.97 1025.56 1025.17 1024.75 1024.17 1023.92 1023.68 1023.18 1023.06 1022.69 1022.44 1021.77 1021.69 1021.01 1020.32 1020.01 1020.16 1020.02 1019.85 1019.79
1034.68 1034.56 1034.41 1033.99 1033.82 1033.47 1032.98 1032.90 1032.42 1032.19 1031.68 1031.52 1031.29 1030.82 1030.37 1030.13 1029.73 1029.43 1029.16 1028.61 1028.24 1027.63 1027.08 1026.52 1026.25 1025.75 1025.44 1025.01 1024.69 1024.18 1023.90 1023.62 1023.16 1022.90 1022.42 1021.98 1021.39 1020.59 1020.24 1020.27 1020.17 1020.09 1020.03
1035.04 1035.15 1034.89 1034.66 1034.49 1034.03 1033.87 1033.54 1033.21 1032.76 1032.33 1032.19 1031.96 1031.61 1031.30 1030.79 1030.37 1029.96 1029.70 1029.32 1028.85 1028.41 1027.92 1027.30 1026.91 1026.65 1026.39 1026.06 1025.68 1025.17 1024.61 1023.94 1023.61 1023.25 1022.66 1022.39 1021.81 1021.19 1020.69 1020.55 1020.42 1020.23 1020.20
1035.24 1035.27 1035.28 1035.11 1034.76 1034.61 1034.40 1034.13 1033.77 1033.29 1033.22 1033.16 1032.93 1032.31 1031.53 1031.33 1031.23 1030.88 1030.43 1030.18 1029.93 1029.63 1029.07 1028.54 1028.17 1027.67 1027.09 1026.75 1026.25 1025.72 1025.13 1024.59 1024.08 1023.57 1023.02 1022.74 1022.16 1021.69 1021.28 1020.93 1020.48 1020.24 1020.32
1035.31 1035.67 1035.67 1035.66 1035.45 1035.00 1034.67 1034.54 1034.40 1034.06 1033.99 1033.96 1033.50 1033.18 1032.77 1032.35 1031.98 1031.62 1031.30 1031.02 1030.90 1030.43 1029.88 1029.22 1028.75 1028.40 1027.76 1027.25 1026.69 1026.14 1025.36 1024.99 1024.42 1023.95 1023.49 1023.11 1022.60 1022.01 1021.59 1021.22 1020.85 1020.61 1020.55
1035.59 1035.80 1035.84 1035.72 1035.57 1035.39 1035.24 1035.04 1034.96 1034.71 1034.64 1034.41 1034.25 1034.07 1033.68 1033.17 1032.71 1032.42 1032.11 1031.87 1031.44 1031.11 1030.66 1030.23 1029.75 1029.12 1028.58 1027.87 1027.04 1026.51 1025.97 1025.30 1024.96 1024.33 1023.82 1023.34 1022.91 1022.66 1022.26 1021.77 1021.28 1020.95 1020.74
1035.40 1035.58 1035.68 1035.48 1035.81 1035.84 1035.63 1035.50 1035.41 1035.35 1035.14 1034.99 1034.79 1034.58 1034.16 1033.84 1033.48 1033.13 1032.69 1032.29 1032.13 1031.65 1031.20 1030.66 1030.13 1029.59 1028.96 1028.14 1027.44 1026.87 1026.45 1026.09 1025.37 1024.58 1024.01 1023.63 1023.32 1023.03 1022.82 1022.54 1022.16 1021.74 1021.40
1035.40 1035.54 1035.59 1035.85 1036.07 1035.98 1036.03 1036.02 1035.91 1035.99 1035.72 1035.47 1035.27 1035.04 1034.70 1034.47 1034.23 1033.70 1033.25 1033.05 1032.88 1032.32 1031.89 1031.22 1030.68 1030.02 1029.44 1028.74 1027.98 1027.28 1026.91 1026.53 1025.97 1025.32 1024.85 1024.66 1024.34 1024.01 1023.58 1023.54 1023.13 1022.48 1022.13
1035.38 1035.52 1035.75 1036.04 1036.15 1036.18 1036.30 1036.24 1036.17 1036.04 1035.87 1035.92 1035.80 1035.66 1035.65 1035.36 1034.89 1034.28 1034.03 1033.85 1033.30 1032.77 1032.56 1032.18 1031.60 1031.22 1030.36 1029.34 1028.32 1027.60 1027.30 1026.95 1026.58 1026.16 1025.78 1025.48 1025.52 1024.98 1024.52 1024.08 1023.85 1023.38 1022.84
1035.77 1036.08 1035.93 1035.98 1036.29 1036.31 1036.27 1036.22 1036.20 1036.22 1036.44 1036.59 1036.62 1036.62 1036.42 1035.85 1035.25 1034.67 1034.31 1034.09 1033.53 1033.04 1032.81 1032.51 1032.09 1031.67 1031.36 1030.64 1029.25 1028.07 1027.46 1027.13 1027.10 1026.75 1026.64 1026.45 1026.22 1025.79 1025.54 1024.91 1024.28 1023.66 1023.12
1036.01 1036.29 1036.42 1036.62 1036.91 1036.68 1036.55 1036.57 1036.67 1036.80 1037.02 1037.14 1037.01 1037.02 1036.57 1036.12 1035.52 1035.15 1034.59 1034.13 1033.69 1033.39 1033.53 1033.19 1032.62 1032.05 1031.43 1031.04 1029.42 1028.35 1027.48 1027.24 1027.05 1027.35 1027.17 1027.28 1026.83 1026.69 1026.13 1025.63 1025.04 1024.16 1023.70
1035.69 1036.17 1036.52 1036.73 1036.97 1036.98 1036.92 1036.99 1037.00 1037.11 1037.29 1037.29 1037.23 1037.08 1036.87 1036.47 1035.90 1035.37 1035.16 1034.69 1034.44 1034.08 1033.92 1033.58 1033.19 1032.62 1032.27 1031.91 1031.03 1029.66 1028.77 1027.93 1027.70 1028.33 1027.94 1027.86 1027.63 1027.29 1026.54 1026.19 1025.51 1025.16 1024.40
1035.47 1035.97 1036.28 1036.66 1036.97 1037.23 1037.46 1037.03 1037.17 1037.34 1037.41 1037.50 1037.51 1037.25 1037.13 1036.81 1036.40 1036.03 1035.85 1035.55 1035.17 1034.82 1034.52 1034.11 1033.97 1033.55 1033.13 1032.70 1032.45 1032.05 1031.06 1030.91 1029.99 1028.74 1028.57 1028.48 1028.17 1027.50 1026.96 1026.43 1025.91 1025.40 1024.62
1034.94 1035.75 1036.30 1036.75 1037.20 1037.62 1037.81 1037.82 1037.73 1037.54 1037.65 1038.06 1038.00 1037.71 1037.34 1037.20 1036.90 1036.60 1036.38 1036.03 1035.73 1035.45 1035.18 1034.84 1034.65 1034.43 1033.98 1033.47 1033.13 1033.33 1033.54 1033.43 1032.41 1030.17 1028.72 1028.70 1028.80 1027.98 1027.43 1026.58 1026.12 1025.50 1024.94
1034.58 1035.60 1036.32 1036.90 1037.41 1037.98 1038.29 1038.41 1038.30 1038.21 1038.23 1038.25 1037.97 1037.56 1037.46 1037.39 1037.36 1037.16 1036.90 1036.75 1036.41 1036.09 1035.80 1035.47 1035.12 1034.87 1034.63 1034.40 1034.19 1034.00 1033.56 1033.14 1033.27 1032.90 1030.78 1028.97 1028.92 1028.51 1027.91 1027.18 1026.28 1025.57 1024.95
1034.73 1035.51 1036.18 1036.69 1037.19 1037.84 1038.21 1038.75 1038.63 1038.51 1038.30 1038.03 1037.88 1037.56 1037.47 1037.56 1037.62 1037.75 1037.53 1037.34 1037.03 1036.62 1036.20 1035.81 1035.54 1035.35 1035.16 1034.86 1034.70 1034.55 1034.30 1033.83 1033.29 1033.17 1032.20 1031.35 1030.19 1027.91 1027.88 1026.97 1026.36 1025.71 1025.21
Wind_Speed
10 14 23 27 24 25 25 25 25 24 24 23 22 21 20 21 22 20 19 18 17 16 17 17 17 18 17 16 15 14 13 14 13 13 12 11 10 11 10 10 8 11 11
10 13 21 25 22 22 23 23 24 24 24 25 24 22 22 23 22 22 21 20 19 19 18 17 18 18 17 17 15 14 14 14 13 10 9 9 9 9 9 8 7 9 10
10 12 15 21 21 20 22 22 22 23 24 23 24 24 23 22 23 22 23 22 21 20 19 20 19 17 17 16 15 15 14 14 12 10 8 7 6 6 7 5 5 7 8
10 11 14 18 19 20 20 21 22 22 23 22 22 23 23 22 22 22 22 22 23 23 22 20 19 19 18 17 16 16 16 14 13 10 6 7 7 5 4 4 3 5 5
10 11 13 17 18 19 19 20 21 22 22 21 21 22 22 22 22 22 23 22 22 22 22 22 22 21 18 18 18 17 15 14 12 9 8 8 7 5 1 2 2 3 3
10 11 13 16 17 18 20 20 21 21 22 21 21 21 22 22 23 23 24 23 23 22 21 21 21 21 22 21 20 20 18 16 9 9 8 9 8 12 2 2 0 2 2
10 9 10 15 16 19 19 20 21 21 21 20 20 21 21 22 23 23 24 23 23 23 23 22 22 21 21 21 20 20 19 15 11 9 8 8 8 13 5 1 1 1 3
10 10 10 13 16 18 18 20 21 21 21 21 21 21 21 22 23 23 23 24 23 23 23 23 22 21 20 21 22 22 21 16 9 9 9 7 10 12 10 4 1 2 4
10 10 10 10 12 14 19 19 20 21 21 21 22 22 20 22 22 23 23 24 23 24 23 23 22 22 20 21 22 22 21 19 12 9 9 7 13 13 10 8 5 3 3
10 10 10 10 10 10 10 18 19 20 21 22 22 22 21 20 22 23 23 23 24 23 23 23 23 23 21 21 22 22 19 16 13 11 8 10 19 13 11 11 10 8 7
8 11 10 10 10 10 10 11 14 17 20 20 18 21 16 12 14 17 21 23 24 23 23 23 23 22 21 19 21 21 16 8 10 8 7 21 22 17 12 10 11 11 11
9 9 9 10 10 9 8 9 10 10 10 12 13 14 10 12 13 13 16 22 22 23 22 22 23 21 17 11 10 14 8 11 8 9 7 21 23 19 14 12 12 13 12
5 6 9 8 8 9 7 6 5 6 7 8 14 12 10 9 10 10 8 9 11 18 11 14 14 11 15 11 10 9 10 9 7 7 10 20 22 21 17 13 10 11 13
5 7 8 8 8 9 5 6 7 7 7 7 9 12 9 7 9 9 8 10 10 10 12 12 9 12 13 13 12 12 11 8 7 6 10 20 21 21 20 19 17 16 15
5 5 7 7 7 7 8 6 7 7 7 8 8 11 9 8 8 8 9 9 9 9 10 10 11 11 12 12 11 11 12 12 11 7 7 18 21 21 22 22 20 17 16
4 4 5 7 8 7 8 9 6 6 7 7 8 9 11 8 8 8 8 8 9 9 9 9 10 9 9 10 11 12 12 11 11 11 8 9 18 20 22 21 21 21 20
4 3 4 5 6 7 7 7 7 7 7 7 7 10 11 10 9 9 8 8 9 9 10 9 10 9 9 10 11 10 10 11 10 12 10 10 12 20 24 25 24 22 21
6 5 4 4 5 6 6 5 5 6 6 7 7 7 11 11 10 9 8 9 9 8 9 9 10 9 10 10 10 9 8 8 10 12 12 11 12 11 15 25 25 22 23
5 5 4 5 5 5 5 5 6 8 7 7 7 7 9 9 9 7 7 7 8 8 9 8 8 9 11 12 10 8 6 6 10 9 15 14 16 12 11 19 24 23 23
4 3 4 4 5 4 3 4 4 6 6 6 6 6 8 6 9 6 7 8 7 8 9 9 9 8 9 10 9 8 5 3 9 9 12 12 14 15 15 15 13 14 22
4 4 3 3 4 3 1 2 2 3 3 4 5 7 7 7 8 9 6 8 8 10 10 11 9 9 10 12 5 5 6 4 12 10 10 12 13 16 15 15 11 10 13
7 5 4 4 5 4 2 2 1 1 2 3 4 6 8 8 10 9 9 9 10 8 10 12 12 7 7 12 8 4 6 4 9 6 9 12 15 13 14 15 14 18 14
8 7 5 4 4 5 4 2 2 1 1 1 4 4 8 9 10 10 10 8 8 8 8 10 11 13 8 8 13 6 5 5 11 4 9 10 17 12 13 14 17 16 16
9 7 6 5 5 4 4 3 3 2 3 1 1 3 5 9 9 10 10 9 9 7 9 8 8 8 8 9 3 7 5 3 5 9 7 8 13 13 15 12 13 14 16
10 8 7 6 6 4 4 4 3 4 3 2 1 4 6 6 8 9 9 8 8 6 7 8 8 9 6 5 6 5 4 4 3 5 9 14 11 11 12 12 13 12 14
9 9 8 8 6 6 4 4 4 5 4 3 3 3 4 3 5 8 8 7 7 6 7 6 7 7 6 5 4 5 4 4 6 5 8 11 15 12 13 9 10 11 12
Wind_Direction
344 340 337 340 0 7 11 22 28 33 29 30 33 40 43 44 42 40 39 40 39 40 39 37 39 39 37 41 43 41 46 49 43 39 39 37 46 75 76 73 71 74 80
340 342 338 337 2 12 16 22 31 34 32 29 29 36 39 42 39 36 38 33 38 35 36 35 35 34 33 34 35 40 37 36 31 32 32 37 26 69 70 67 68 82 79
359 350 331 339 4 17 21 25 32 36 35 32 28 31 37 41 40 34 35 32 35 35 33 31 34 33 30 31 31 32 32 33 29 29 23 38 33 39 68 67 69 84 83
10 356 335 0 8 19 25 29 31 36 38 35 33 32 36 39 41 38 37 34 32 31 33 29 29 29 29 27 27 29 29 24 22 12 20 21 11 2 66 78 66 84 90
23 7 337 8 11 22 27 31 33 35 38 36 35 34 34 37 37 39 37 34 33 31 31 30 25 26 26 25 26 24 21 19 19 15 7 11 3 11 14 66 100 101 102
26 19 350 13 16 25 30 32 36 36 39 37 36 35 34 37 35 35 34 30 31 30 29 29 28 25 24 24 25 18 11 12 5 15 9 7 359 348 306 57 36 139 142
26 24 8 16 19 27 32 35 37 37 40 41 40 39 39 37 37 34 34 30 28 27 26 26 27 26 23 18 19 15 9 2 7 10 8 4 356 346 344 157 220 156 180
27 23 23 15 25 23 33 36 37 37 38 39 40 41 39 40 39 37 34 31 28 27 27 23 24 23 24 22 17 13 14 13 18 12 2 359 352 345 358 352 250 214 200
33 31 21 19 21 25 26 33 36 38 38 38 41 39 39 39 36 37 33 32 31 28 27 25 21 18 20 22 20 15 12 14 11 3 1 358 342 340 353 3 354 298 255
39 33 26 23 18 22 30 31 33 35 36 35 34 36 36 35 33 30 32 28 31 31 28 25 22 18 16 18 18 16 11 11 2 2 4 1 342 351 9 12 12 358 331
38 32 25 26 22 21 38 24 28 30 34 33 29 27 30 29 27 27 25 25 27 26 26 25 22 18 13 14 13 11 12 8 1 355 351 356 354 347 6 7 13 13 3
35 27 24 26 26 27 33 25 29 28 33 31 29 28 29 29 26 28 24 24 22 22 20 20 18 20 16 12 4 7 6 356 358 348 343 350 354 350 356 10 19 18 9
50 39 27 27 30 34 33 32 30 35 32 30 30 29 30 32 26 27 19 16 14 15 16 14 14 16 11 11 5 2 356 356 352 340 342 346 351 354 356 0 5 14 10
60 41 30 27 34 37 39 39 36 35 37 35 30 27 29 31 29 28 27 21 19 13 12 14 10 6 9 5 2 356 356 356 347 339 336 340 342 349 351 350 356 359 359
81 53 39 34 37 38 44 41 42 43 40 35 32 30 29 33 32 28 28 26 23 14 15 11 8 6 4 359 356 354 354 352 354 348 338 339 342 344 346 346 347 352 350
103 64 47 44 37 39 45 43 39 41 37 40 37 30 30 33 29 29 29 26 24 17 14 10 7 3 359 353 351 351 351 355 352 355 349 345 350 354 351 346 346 346 344
118 85 61 64 46 51 50 48 47 39 40 41 38 35 35 34 33 33 30 28 21 16 15 11 12 10 1 354 351 352 353 353 3 11 14 13 6 10 6 4 357 353 350
151 129 89 68 64 66 63 57 56 46 47 42 35 31 31 31 29 36 34 28 16 20 17 14 12 8 4 354 342 349 353 0 18 17 27 18 24 8 9 9 4 2 358
146 140 111 81 69 83 88 82 66 55 47 38 34 30 25 31 29 40 38 29 24 27 25 16 19 14 5 350 336 345 352 15 23 23 22 24 12 11 8 2 359 354 354
139 108 99 82 56 78 100 83 65 59 51 38 37 33 22 24 30 37 45 37 33 34 31 20 20 24 14 347 321 330 341 36 17 33 21 18 11 16 358 356 352 346 353
158 144 122 102 50 66 105 117 82 59 43 50 42 29 25 23 30 35 39 37 32 37 29 24 15 18 18 359 327 346 337 25 28 29 16 9 13 0 360 357 352 347 340
171 165 140 101 71 59 66 73 58 93 59 41 28 33 28 25 29 34 32 34 31 31 31 28 26 22 23 21 1 326 6 343 17 358 10 360 5 353 356 354 347 345 343
183 174 153 118 85 61 33 112 112 110 145 358 22 30 27 28 30 32 31 32 31 33 31 26 23 29 22 32 37 25 353 354 330 346 1 353 355 349 348 345 347 343 342
185 166 145 141 121 80 50 89 177 197 153 109 17 26 30 30 31 31 30 27 28 29 32 24 26 28 21 30 38 35 25 312 346 324 336 352 346 346 342 338 336 338 339
161 161 150 141 134 114 93 95 113 118 124 137 92 54 42 38 34 25 27 24 26 26 26 26 25 26 31 27 28 0 357 351 119 320 314 327 334 340 336 328 329 331 340
159 159 163 163 155 146 139 129 132 141 148 139 78 72 48 33 30 25 17 17 21 19 18 15 16 22 19 16 5 5 5 349 331 327 311 324 322 330 324 332 321 330 329